User: anonymous   Login
Location: Lecco
(45.8566°N, 9.3977°E)
Time: 10:53:23
(UTC+02:00)
Language:

S-56A Canister/Altair - Orbit

View from above orbital plane
View from above orbital plane
View from above satellite
View from above satellite

Ground track
Ground track

The orbit data is extracted from the following two-line orbital elements,

1    82U 61004B   20226.76010830 -.00000092 +00000-0 -30960-4 0  9993
2    82 038.8595 346.1954 1174321 000.1434 359.9427 12.26061537814840
Epoch (UTC): 13 August 2020 18:14:33
Eccentricity: 0.1174321
inclination: 38.8595°
perigee height: 633 km
apogee height: 2499 km
right ascension of ascending node: 346.1954°
argument of perigee: 0.1434°
revolutions per day: 12.26061537
mean anomaly at epoch: 359.9427°
orbit number at epoch: 81484

The dashed part of the orbit path shows where the satellite is in the earth's shadow,  

DLR